Zurück zum Katalog

STARLINK-31076

AktivKommunikationVLEO
NORAD 58736·PAYLOAD·🇺🇸 United States

Gestartet Jan 7, 2024 von Cape Canaveral Space Force Station

Loading…

Nächste Überflüge (nächste 24 Stunden)

TLE

AktuellSource: CelesTrak SupGP

Epoche: Sep 15, 2026, 02:34 UTC

1 58736C 24005J   26258.10743056 -.00036629  00000+0 -13268-2 0  2586
2 58736  43.0012 229.8232 0001138 267.6361 138.9470 15.27594253    19

Verfolge STARLINK-31076 in Echtzeit mit AllMySat

Download on the App Store